Tracking 29892 objects as of 21-Nov-2024
HD Live streaming from Space Station
objects crossing your sky now

STARLINK-5733

Track STARLINK-5733 now!
10-day predictions
STARLINK-5733 is classified as:


NORAD ID: 56925
Int'l Code: 2023-083BB
Perigee: 565.3 km
Apogee: 567.2 km
Inclination: 43.0 °
Period: 95.8 minutes
Semi major axis: 6937 km
RCS: Unknown
Launch date: June 12, 2023
Source: United States (US)
Launch site: AIR FORCE EASTERN TEST RANGE (AFETR)
Your satellite tracking list
Your tracking list is empty




NASA's NSSDC Master Catalog

Two Line Element Set (TLE):
1 56925U 23083BB  24325.90437591  .00000132  00000-0  24824-4 0  9997
2 56925  43.0035 122.9394 0001387 269.5531  90.5153 15.02537054 79757
Source of the keplerian elements: AFSPC